Year,Month,Day,Hour,Minute,Value (Times are PST for temperature in C)
2017,09,22,09,33,14.60
2017,09,22,09,34,14.70
2017,09,22,09,35,14.70
2017,09,22,09,36,14.70
2017,09,22,09,37,14.70
2017,09,22,09,38,14.80
2017,09,22,09,39,14.80
2017,09,22,09,40,14.80
2017,09,22,09,41,14.90
2017,09,22,09,42,15.00
2017,09,22,09,43,15.00
2017,09,22,09,44,15.10
2017,09,22,09,45,15.10
2017,09,22,09,46,15.20
2017,09,22,09,47,15.20
2017,09,22,09,48,15.20
2017,09,22,09,49,15.20
2017,09,22,09,50,15.30
2017,09,22,09,51,15.30
2017,09,22,09,52,15.30
2017,09,22,09,53,15.30
2017,09,22,09,54,15.30
2017,09,22,09,55,15.30
2017,09,22,09,56,15.30
2017,09,22,09,57,15.30
2017,09,22,09,58,15.30
2017,09,22,09,59,15.30
2017,09,22,10,00,15.30
2017,09,22,10,01,15.30
2017,09,22,10,02,15.30
2017,09,22,10,03,15.30
2017,09,22,10,04,15.30
2017,09,22,10,05,15.30
2017,09,22,10,06,15.30
2017,09,22,10,07,15.30
2017,09,22,10,08,15.30
2017,09,22,10,09,15.30
2017,09,22,10,10,15.30
2017,09,22,10,11,15.30
2017,09,22,10,12,15.30
2017,09,22,10,13,15.40
2017,09,22,10,14,15.40
2017,09,22,10,15,15.40
2017,09,22,10,16,15.40
2017,09,22,10,17,15.40
2017,09,22,10,18,15.50
2017,09,22,10,19,15.50
2017,09,22,10,20,15.50
2017,09,22,10,21,15.50
2017,09,22,10,22,15.50
2017,09,22,10,23,15.60
2017,09,22,10,24,15.60
2017,09,22,10,25,15.70
2017,09,22,10,26,15.70
2017,09,22,10,27,15.80
2017,09,22,10,28,15.80
2017,09,22,10,29,15.80
2017,09,22,10,30,15.80
2017,09,22,10,31,15.80
2017,09,22,10,32,15.80
2017,09,22,10,33,15.90
2017,09,22,10,34,15.90
2017,09,22,10,35,15.90
2017,09,22,10,36,15.90
2017,09,22,10,37,15.80
2017,09,22,10,38,15.80
2017,09,22,10,39,15.80
2017,09,22,10,40,15.80
2017,09,22,10,41,15.90
2017,09,22,10,42,16.10
2017,09,22,10,43,16.10
2017,09,22,10,44,16.20
2017,09,22,10,45,16.30
2017,09,22,10,46,16.40
2017,09,22,10,47,16.40
2017,09,22,10,48,16.40
2017,09,22,10,49,16.40
2017,09,22,10,50,16.50
2017,09,22,10,51,16.60
2017,09,22,10,52,16.70
2017,09,22,10,53,16.80
2017,09,22,10,54,16.80
2017,09,22,10,55,16.90
2017,09,22,10,56,17.00
2017,09,22,10,57,17.00
2017,09,22,10,58,17.00
2017,09,22,10,59,17.10
2017,09,22,11,00,17.10
2017,09,22,11,01,17.10
2017,09,22,11,02,17.10
2017,09,22,11,03,17.00
2017,09,22,11,04,17.00
2017,09,22,11,05,17.00
2017,09,22,11,06,16.90
2017,09,22,11,07,16.90
2017,09,22,11,08,16.80
2017,09,22,11,09,16.90
2017,09,22,11,10,16.90
2017,09,22,11,11,17.00
2017,09,22,11,12,17.10
2017,09,22,11,13,17.20
2017,09,22,11,14,17.20
2017,09,22,11,15,17.20
2017,09,22,11,16,17.20
2017,09,22,11,17,17.20
2017,09,22,11,18,17.20
2017,09,22,11,19,17.20
2017,09,22,11,20,17.20
2017,09,22,11,21,17.30
2017,09,22,11,22,17.30
2017,09,22,11,23,17.30
2017,09,22,11,24,17.40
2017,09,22,11,25,17.40
2017,09,22,11,26,17.50
2017,09,22,11,27,17.60
2017,09,22,11,28,17.60
2017,09,22,11,29,17.60
2017,09,22,11,30,17.60
2017,09,22,11,31,17.60
2017,09,22,11,32,17.60
2017,09,22,11,33,17.60
2017,09,22,11,34,17.70
2017,09,22,11,35,17.80
2017,09,22,11,36,17.80
2017,09,22,11,37,17.90
2017,09,22,11,38,17.90
2017,09,22,11,39,17.90
2017,09,22,11,40,17.90
2017,09,22,11,41,18.00
2017,09,22,11,42,18.10
2017,09,22,11,43,18.20
2017,09,22,11,44,18.20
2017,09,22,11,45,18.30
2017,09,22,11,46,18.30
2017,09,22,11,47,18.20
2017,09,22,11,48,18.30
2017,09,22,11,49,18.30
2017,09,22,11,50,18.40
2017,09,22,11,51,18.50
2017,09,22,11,52,18.50
2017,09,22,11,53,18.50
2017,09,22,11,54,18.50
2017,09,22,11,55,18.50
2017,09,22,11,56,18.60
2017,09,22,11,57,18.70
2017,09,22,11,58,18.80
2017,09,22,11,59,18.80
2017,09,22,12,00,18.70
2017,09,22,12,01,18.70
2017,09,22,12,02,18.70
2017,09,22,12,03,18.60
2017,09,22,12,04,18.50
2017,09,22,12,05,18.50
2017,09,22,12,06,18.60
2017,09,22,12,07,18.60
2017,09,22,12,08,18.60
2017,09,22,12,09,18.60
2017,09,22,12,10,18.60
2017,09,22,12,11,18.60
2017,09,22,12,12,18.70
2017,09,22,12,13,18.70
2017,09,22,12,14,18.70
2017,09,22,12,15,18.70
2017,09,22,12,16,18.70
2017,09,22,12,17,18.60
2017,09,22,12,18,18.50
2017,09,22,12,19,18.30
2017,09,22,12,20,18.20
2017,09,22,12,21,18.00
2017,09,22,12,22,17.90
2017,09,22,12,23,17.90
2017,09,22,12,24,17.80
2017,09,22,12,25,17.80
2017,09,22,12,26,17.70
2017,09,22,12,27,17.80
2017,09,22,12,28,17.80
2017,09,22,12,29,17.80
2017,09,22,12,30,17.80
2017,09,22,12,31,17.80
2017,09,22,12,32,17.80
2017,09,22,12,33,17.70
2017,09,22,12,34,17.60
2017,09,22,12,35,17.60
2017,09,22,12,36,17.70
2017,09,22,12,37,17.60
2017,09,22,12,38,17.50
2017,09,22,12,39,17.50
2017,09,22,12,40,17.50
2017,09,22,12,41,17.60
2017,09,22,12,42,17.70
2017,09,22,12,43,17.80
2017,09,22,12,44,18.00
2017,09,22,12,45,18.10
2017,09,22,12,46,18.20
2017,09,22,12,47,18.20
2017,09,22,12,48,18.40
2017,09,22,12,49,18.50
2017,09,22,12,50,18.60
2017,09,22,12,51,18.60
2017,09,22,12,52,18.70
2017,09,22,12,53,18.60
2017,09,22,12,54,18.60
2017,09,22,12,55,18.70
2017,09,22,12,56,18.70
2017,09,22,12,57,18.60
2017,09,22,12,58,18.50
2017,09,22,12,59,18.40
2017,09,22,13,00,18.30
2017,09,22,13,01,18.30
2017,09,22,13,02,18.20
2017,09,22,13,03,18.20
2017,09,22,13,04,18.20
2017,09,22,13,05,18.20
2017,09,22,13,06,18.20
2017,09,22,13,07,18.20
2017,09,22,13,08,18.20
2017,09,22,13,09,18.20
2017,09,22,13,10,18.20
2017,09,22,13,11,18.20
2017,09,22,13,12,18.20
2017,09,22,13,13,18.10
2017,09,22,13,14,17.90
2017,09,22,13,15,17.90
2017,09,22,13,16,17.90
2017,09,22,13,17,17.90
2017,09,22,13,18,18.00
2017,09,22,13,19,18.10
2017,09,22,13,20,18.10
2017,09,22,13,21,18.20
2017,09,22,13,22,18.20
2017,09,22,13,23,18.30
2017,09,22,13,24,18.50
2017,09,22,13,25,18.50
2017,09,22,13,26,18.60
2017,09,22,13,27,18.60
2017,09,22,13,28,18.60
2017,09,22,13,29,18.60
2017,09,22,13,30,18.60
2017,09,22,13,31,18.70
2017,09,22,13,32,18.90
2017,09,22,13,33,19.00
2017,09,22,13,34,19.10
2017,09,22,13,35,19.20
2017,09,22,13,36,19.20
2017,09,22,13,37,19.20
2017,09,22,13,38,19.10
2017,09,22,13,39,19.10
2017,09,22,13,40,19.10
2017,09,22,13,41,19.10
2017,09,22,13,42,19.20
2017,09,22,13,43,19.10
2017,09,22,13,44,19.10
2017,09,22,13,45,19.10
2017,09,22,13,46,19.20
2017,09,22,13,47,19.20
2017,09,22,13,48,19.10
2017,09,22,13,49,18.90
2017,09,22,13,50,18.80
2017,09,22,13,51,18.80
2017,09,22,13,52,18.80
2017,09,22,13,53,18.70
2017,09,22,13,54,18.70
2017,09,22,13,55,18.70
2017,09,22,13,56,18.60
2017,09,22,13,57,18.50
2017,09,22,13,58,18.30
2017,09,22,13,59,18.10
2017,09,22,14,00,18.00
2017,09,22,14,01,17.80
2017,09,22,14,02,17.60
2017,09,22,14,03,17.50
2017,09,22,14,04,17.30
2017,09,22,14,05,17.30
2017,09,22,14,06,17.20
2017,09,22,14,07,17.20
2017,09,22,14,08,17.30
2017,09,22,14,09,17.30
2017,09,22,14,10,17.30
2017,09,22,14,11,17.30
2017,09,22,14,12,17.20
2017,09,22,14,13,17.00
2017,09,22,14,14,16.90
2017,09,22,14,15,16.80
2017,09,22,14,16,16.70
2017,09,22,14,17,16.70
2017,09,22,14,18,16.70
2017,09,22,14,19,16.70
2017,09,22,14,20,16.50
2017,09,22,14,21,16.40
2017,09,22,14,22,16.30
2017,09,22,14,23,16.20
2017,09,22,14,24,16.10
2017,09,22,14,25,16.00
2017,09,22,14,26,15.90
2017,09,22,14,27,15.80
2017,09,22,14,28,15.80
2017,09,22,14,29,15.80
2017,09,22,14,30,15.80
2017,09,22,14,31,15.70
2017,09,22,14,32,15.70
2017,09,22,14,33,15.70
2017,09,22,14,34,15.70
2017,09,22,14,35,15.70
2017,09,22,14,36,15.80
2017,09,22,14,37,15.80
2017,09,22,14,38,15.80
2017,09,22,14,39,15.80
2017,09,22,14,40,15.80
2017,09,22,14,41,15.70
2017,09,22,14,42,15.60
2017,09,22,14,43,15.60
2017,09,22,14,44,15.50
2017,09,22,14,45,15.50
2017,09,22,14,46,15.40
2017,09,22,14,47,15.40
2017,09,22,14,48,15.30
2017,09,22,14,49,15.30
2017,09,22,14,50,15.30
2017,09,22,14,51,15.30
2017,09,22,14,52,15.40
2017,09,22,14,53,15.40
2017,09,22,14,54,15.50
2017,09,22,14,55,15.50
2017,09,22,14,56,15.50
2017,09,22,14,57,15.60
2017,09,22,14,58,15.70
2017,09,22,14,59,15.70
2017,09,22,15,00,15.80
2017,09,22,15,01,15.90
2017,09,22,15,02,16.00
2017,09,22,15,03,16.10
2017,09,22,15,04,16.00
2017,09,22,15,05,15.90
2017,09,22,15,06,15.90
2017,09,22,15,07,15.90
2017,09,22,15,08,15.90
2017,09,22,15,09,15.90
2017,09,22,15,10,15.90
2017,09,22,15,11,15.90
2017,09,22,15,12,16.00
2017,09,22,15,13,16.10
2017,09,22,15,14,16.10
2017,09,22,15,15,16.10
2017,09,22,15,16,16.10
2017,09,22,15,17,16.10
2017,09,22,15,18,16.20
2017,09,22,15,19,16.30
2017,09,22,15,20,16.30
2017,09,22,15,21,16.30
2017,09,22,15,22,16.20
2017,09,22,15,23,16.20
2017,09,22,15,24,16.20
2017,09,22,15,25,16.10
2017,09,22,15,26,16.10
2017,09,22,15,27,16.00
2017,09,22,15,28,15.90
2017,09,22,15,29,15.90
2017,09,22,15,30,15.90
2017,09,22,15,31,15.80
2017,09,22,15,32,15.90
2017,09,22,15,33,15.90
2017,09,22,15,34,15.90
2017,09,22,15,35,15.90
2017,09,22,15,36,15.90
2017,09,22,15,37,15.90
2017,09,22,15,38,16.10
2017,09,22,15,39,16.10
2017,09,22,15,40,16.10
2017,09,22,15,41,16.10
2017,09,22,15,42,16.10
2017,09,22,15,43,16.10
2017,09,22,15,44,16.10
2017,09,22,15,45,16.20
2017,09,22,15,46,16.20
2017,09,22,15,47,16.20
2017,09,22,15,48,16.20
2017,09,22,15,49,16.10
2017,09,22,15,50,16.10
2017,09,22,15,51,16.00
2017,09,22,15,52,15.90
2017,09,22,15,53,15.80
2017,09,22,15,54,15.80
2017,09,22,15,55,15.80
2017,09,22,15,56,15.80
2017,09,22,15,57,15.80
2017,09,22,15,58,15.70
2017,09,22,15,59,15.70
2017,09,22,16,00,15.70
2017,09,22,16,01,15.60
2017,09,22,16,02,15.60
2017,09,22,16,03,15.60
2017,09,22,16,04,15.50
2017,09,22,16,05,15.50
2017,09,22,16,06,15.40
2017,09,22,16,07,15.40
2017,09,22,16,08,15.40
2017,09,22,16,09,15.40
2017,09,22,16,10,15.40
2017,09,22,16,11,15.40
2017,09,22,16,12,15.40
2017,09,22,16,13,15.30
2017,09,22,16,14,15.30
2017,09,22,16,15,15.30
2017,09,22,16,16,15.30
2017,09,22,16,17,15.30
2017,09,22,16,18,15.30
2017,09,22,16,19,15.30
2017,09,22,16,20,15.30
2017,09,22,16,21,15.40
2017,09,22,16,22,15.40
2017,09,22,16,23,15.50
2017,09,22,16,24,15.50
2017,09,22,16,25,15.50
2017,09,22,16,26,15.50
2017,09,22,16,27,15.50
2017,09,22,16,28,15.50
2017,09,22,16,29,15.60
2017,09,22,16,30,15.60
2017,09,22,16,31,15.60
2017,09,22,16,32,15.50
2017,09,22,16,33,15.50
2017,09,22,16,34,15.40
2017,09,22,16,35,15.40
2017,09,22,16,36,15.30
2017,09,22,16,37,15.30
2017,09,22,16,38,15.30
2017,09,22,16,39,15.30
2017,09,22,16,40,15.30
2017,09,22,16,41,15.30
2017,09,22,16,42,15.30
2017,09,22,16,43,15.30
2017,09,22,16,44,15.30
2017,09,22,16,45,15.30
2017,09,22,16,46,15.30
2017,09,22,16,47,15.30
2017,09,22,16,48,15.30
2017,09,22,16,49,15.30
2017,09,22,16,50,15.30
2017,09,22,16,51,15.30
2017,09,22,16,52,15.30
2017,09,22,16,53,15.20
2017,09,22,16,54,15.20
2017,09,22,16,55,15.20
2017,09,22,16,56,15.20
2017,09,22,16,57,15.20
2017,09,22,16,58,15.20
2017,09,22,16,59,15.20
2017,09,22,17,00,15.20
2017,09,22,17,01,15.30
2017,09,22,17,02,15.30
2017,09,22,17,03,15.30
2017,09,22,17,04,15.30
2017,09,22,17,05,15.30
2017,09,22,17,06,15.30
2017,09,22,17,07,15.40
2017,09,22,17,08,15.40
2017,09,22,17,09,15.40
2017,09,22,17,10,15.50
2017,09,22,17,11,15.50
2017,09,22,17,12,15.50
2017,09,22,17,13,15.50
2017,09,22,17,14,15.50
2017,09,22,17,15,15.50
2017,09,22,17,16,15.60
2017,09,22,17,17,15.60
2017,09,22,17,18,15.60
2017,09,22,17,19,15.60
2017,09,22,17,20,15.60
2017,09,22,17,21,15.70
2017,09,22,17,22,15.70
2017,09,22,17,23,15.70
2017,09,22,17,24,15.70
2017,09,22,17,25,15.70
2017,09,22,17,26,15.60
2017,09,22,17,27,15.60
2017,09,22,17,28,15.60
2017,09,22,17,29,15.60
2017,09,22,17,30,15.60
2017,09,22,17,31,15.60
2017,09,22,17,32,15.60
2017,09,22,17,33,15.60
2017,09,22,17,34,15.60
2017,09,22,17,35,15.70
2017,09,22,17,36,15.70
2017,09,22,17,37,15.70
2017,09,22,17,38,15.70
2017,09,22,17,39,15.70
2017,09,22,17,40,15.70
2017,09,22,17,41,15.70
2017,09,22,17,42,15.70
2017,09,22,17,43,15.70
2017,09,22,17,44,15.70
2017,09,22,17,45,15.70
2017,09,22,17,46,15.70
2017,09,22,17,47,15.70
2017,09,22,17,48,15.70
2017,09,22,17,49,15.70
2017,09,22,17,50,15.70
2017,09,22,17,51,15.70
2017,09,22,17,52,15.70
2017,09,22,17,53,15.70
2017,09,22,17,54,15.70
2017,09,22,17,55,15.80
2017,09,22,17,56,15.80
2017,09,22,17,57,15.80
2017,09,22,17,58,15.80
2017,09,22,17,59,15.90
2017,09,22,18,00,15.90
2017,09,22,18,01,16.00
2017,09,22,18,02,16.10
2017,09,22,18,03,16.10
2017,09,22,18,04,16.10
2017,09,22,18,05,16.10
2017,09,22,18,06,16.10
2017,09,22,18,07,16.20
2017,09,22,18,08,16.20
2017,09,22,18,09,16.20
2017,09,22,18,10,16.30
2017,09,22,18,11,16.30
2017,09,22,18,12,16.30
2017,09,22,18,13,16.30
2017,09,22,18,14,16.30
2017,09,22,18,15,16.20
2017,09,22,18,16,16.20
2017,09,22,18,17,16.20
2017,09,22,18,18,16.20
2017,09,22,18,19,16.10
2017,09,22,18,20,16.10
2017,09,22,18,21,16.10
2017,09,22,18,22,16.10
2017,09,22,18,23,16.10
2017,09,22,18,24,16.10
2017,09,22,18,25,16.00
2017,09,22,18,26,15.90
2017,09,22,18,27,15.90
2017,09,22,18,28,15.90
2017,09,22,18,29,15.90
2017,09,22,18,30,15.90
2017,09,22,18,31,16.00
2017,09,22,18,32,16.00
2017,09,22,18,33,16.10
2017,09,22,18,34,16.10
2017,09,22,18,35,16.10
2017,09,22,18,36,16.10
2017,09,22,18,37,16.10
2017,09,22,18,38,16.10
2017,09,22,18,39,16.10
2017,09,22,18,40,16.10
2017,09,22,18,41,16.10
2017,09,22,18,42,16.10
2017,09,22,18,43,16.10
2017,09,22,18,44,16.10
2017,09,22,18,45,16.10
2017,09,22,18,46,16.00
2017,09,22,18,47,15.90
2017,09,22,18,48,15.90
2017,09,22,18,49,15.80
2017,09,22,18,50,15.80
2017,09,22,18,51,15.80
2017,09,22,18,52,15.80
2017,09,22,18,53,15.80
2017,09,22,18,54,15.80
2017,09,22,18,55,15.80
2017,09,22,18,56,15.80
2017,09,22,18,57,15.80
2017,09,22,18,58,15.80
2017,09,22,18,59,15.80
2017,09,22,19,00,15.80
2017,09,22,19,01,15.80
2017,09,22,19,02,15.80
2017,09,22,19,03,15.80
2017,09,22,19,04,15.70
2017,09,22,19,05,15.70
2017,09,22,19,06,15.70
2017,09,22,19,07,15.70
2017,09,22,19,08,15.70
2017,09,22,19,09,15.70
2017,09,22,19,10,15.70
2017,09,22,19,11,15.70
2017,09,22,19,12,15.70
2017,09,22,19,13,15.70
2017,09,22,19,14,15.70
2017,09,22,19,15,15.70
2017,09,22,19,16,15.70
2017,09,22,19,17,15.70
2017,09,22,19,18,15.70
